Weather History for Pecs, Hungary

Change the Weather History Date:

Sunday, October 13, 2013

  Actual Average Record
Temperature  
Mean Temperature 58 °F -  
Max Temperature 67 °F 56 °F - ()
Min Temperature 50 °F 41 °F - ()
Degree Days  
Heating Degree Days 6    
Growing Degree Days 8 (Base 50)    
Moisture  
Dew Point 53 °F    
Average Humidity 85    
Maximum Humidity 100    
Minimum Humidity 53    
Precipitation  
Precipitation 0.00 in 0.06 in - ()
Sea Level Pressure  
Sea Level Pressure 30.18 in    
Wind  
Wind Speed 3 mph ()    
Max Wind Speed 8 mph    
Max Gust Speed -    
Visibility 2.8 miles    
Events Fog    
T = Trace of Precipitation, MM = Missing Value Source: Averaged Metar Reports

Daily Weather History Graph

Daily Weather History Graph

Search for Another Location

Airport:

Trip Planner

Search our weather history database for the weather conditions in past years. The results will help you decide how hot, cold, wet, or windy it might be!

Date:

Astronomy

Oct. 13, 2013 Rise Set
Actual Time 7:01 AM CEST 6:04 PM CEST
Civil Twilight 6:31 AM CEST 6:34 PM CEST
Nautical Twilight 5:56 AM CEST 7:09 PM CEST
Astronomical Twilight 5:21 AM CEST 7:43 PM CEST
Moon 3:00 PM CEST (10/13) 12:32 AM CEST (10/13)
Length of Visible Light 12h 03m
Length of Day
11h 03m
Waxing Gibbous, 66% of the Moon is Illuminated
Oct 13
Waxing Gibbous
Oct 19
Full
Oct 27
Last Quarter
Nov 3
New
Nov 10
First Quarter

Hourly Weather History & Observations

Time (CEST) Temp. Dew Point Humidity Pressure Visibility Wind Dir Wind Speed Gust Speed Precip Events Conditions
12:45 AM 55.4 °F 55.4 °F 100% 30.15 in 0.1 mi West 2.3 mph - N/A Fog Fog
1:45 AM 55.4 °F 53.6 °F 94% 30.15 in 0.1 mi WNW 3.5 mph - N/A Fog Fog
2:00 AM 55 °F 54 °F 97% 30.16 in 0 mi WNW 4.5 mph - - Fog Partial Fog
2:45 AM 53.6 °F 53.6 °F 100% 30.15 in 0.2 mi WSW 3.5 mph - N/A Fog Fog
3:45 AM 53.6 °F 53.6 °F 100% 30.15 in 0.1 mi Calm Calm - N/A Fog Fog
4:30 AM 51.8 °F 51.8 °F 100% 30.15 in - North - - N/A   Unknown
4:45 AM 51.8 °F 51.8 °F 100% 30.15 in 0.1 mi NNW 3.5 mph - N/A Fog Fog
5:45 AM 51.8 °F 50.0 °F 94% 30.15 in 0.1 mi Calm Calm - N/A Fog Fog
6:15 AM 51.8 °F 50.0 °F 94% 30.15 in 0.1 mi Calm Calm - N/A Fog Fog
6:26 AM 51.8 °F 50.0 °F 94% 30.18 in 0.5 mi South 2.3 mph - N/A Fog Fog
6:45 AM 51.8 °F 50.0 °F 94% 30.15 in 0.5 mi SSW 4.6 mph - N/A Fog Fog
7:00 AM - - N/A% - 0.1 mi Variable 3.5 mph - N/A Fog Fog
7:15 AM 51.8 °F 50.0 °F 94% 30.15 in 0.5 mi WSW 3.5 mph - N/A Fog Fog
7:24 AM 51.8 °F 50.0 °F 94% 30.18 in 0.7 mi West 2.3 mph - N/A   Mostly Cloudy
7:33 AM 51.8 °F 50.0 °F 94% 30.18 in 0.9 mi West 2.3 mph - N/A   Mostly Cloudy
7:45 AM 51.8 °F 50.0 °F 94% 30.18 in 1.2 mi Calm Calm - N/A   Mostly Cloudy
8:00 AM 51 °F 51 °F 98% 30.18 in 1 mi Calm Calm - - Fog Light Fog
8:15 AM 51.8 °F 51.8 °F 100% 30.18 in 1.2 mi NW 3.5 mph - N/A   Mostly Cloudy
8:45 AM 51.8 °F 51.8 °F 100% 30.18 in 1.2 mi NW 6.9 mph - N/A   Mostly Cloudy
9:15 AM 53.6 °F 51.8 °F 94% 30.18 in 1.2 mi NW 8.1 mph - N/A   Mostly Cloudy
9:45 AM 55.4 °F 53.6 °F 94% 30.18 in 1.6 mi NW 6.9 mph - N/A   Mostly Cloudy
10:00 AM - - N/A% - 1.9 mi WNW 6.9 mph - N/A   Mostly Cloudy
10:08 AM 57.2 °F 57.2 °F 100% 30.18 in 1.9 mi NW 4.6 mph - N/A   Scattered Clouds
10:15 AM 57.2 °F 57.2 °F 100% 30.18 in 2.2 mi NW 5.8 mph - N/A   Scattered Clouds
10:24 AM 59.0 °F 57.2 °F 94% 30.18 in 3.1 mi NW 3.5 mph - N/A   Scattered Clouds
10:45 AM 60.8 °F 59.0 °F 94% 30.18 in 3.7 mi NW 5.8 mph - N/A   Scattered Clouds
11:15 AM 62.6 °F 59.0 °F 88% 30.18 in 5.0 mi NW 5.8 mph - N/A   Scattered Clouds
11:45 AM 62.6 °F 57.2 °F 82% 30.21 in 6.2 mi West 6.9 mph - N/A   Mostly Cloudy
12:15 PM 64.4 °F 59.0 °F 83% 30.21 in 6.2 mi West 5.8 mph - N/A   Scattered Clouds
12:45 PM 64.4 °F 55.4 °F 73% 30.21 in 6.2 mi WNW 6.9 mph - N/A   Scattered Clouds
1:00 PM - - N/A% - 6.2 mi WNW 6.9 mph - N/A   Mostly Cloudy
1:15 PM 64.4 °F 57.2 °F 77% 30.18 in 6.2 mi NNW 2.3 mph - N/A   Scattered Clouds
1:45 PM 66.2 °F 53.6 °F 64% 30.18 in 6.2 mi WNW 3.5 mph - N/A   Mostly Cloudy
2:00 PM 66 °F 53 °F 53% 30.18 in 25 mi WNW 4.5 mph - -   Partly Cloudy
2:15 PM 68.0 °F 51.8 °F 56% 30.18 in 6.2 mi West 3.5 mph - N/A   Mostly Cloudy
2:45 PM 66.2 °F 51.8 °F 60% 30.18 in - WNW 3.5 mph - N/A   Clear
3:15 PM 66.2 °F 51.8 °F 60% 30.18 in 6.2 mi WNW 3.5 mph - N/A   Mostly Cloudy
3:45 PM 66.2 °F 53.6 °F 64% 30.18 in 6.2 mi WNW 3.5 mph - N/A   Mostly Cloudy
4:00 PM - - N/A% - 1.9 mi Variable 3.5 mph - N/A Fog Fog
4:15 PM 66.2 °F 53.6 °F 64% 30.18 in 6.2 mi WNW 3.5 mph - N/A   Mostly Cloudy
4:45 PM 66.2 °F 53.6 °F 64% 30.18 in 6.2 mi WNW 3.5 mph - N/A   Mostly Cloudy
5:15 PM 66.2 °F 53.6 °F 64% 30.18 in 6.2 mi WNW 3.5 mph - N/A   Mostly Cloudy
5:45 PM 64.4 °F 53.6 °F 68% 30.18 in 6.2 mi NW 3.5 mph - N/A   Mostly Cloudy
6:15 PM 62.6 °F 53.6 °F 72% 30.18 in - NW 2.3 mph - N/A   Clear
6:45 PM 60.8 °F 51.8 °F 72% 30.18 in - West 2.3 mph - N/A   Clear
7:15 PM 59.0 °F 51.8 °F 77% 30.18 in - Calm Calm - N/A   Clear
7:45 PM 59.0 °F 51.8 °F 77% 30.18 in - West 2.3 mph - N/A   Clear
8:00 PM 60 °F 52 °F 67% 30.19 in 37 mi West 2.2 mph - -   Partly Cloudy
8:15 PM 60.8 °F 51.8 °F 72% 30.18 in - NW 4.6 mph - N/A   Clear
8:45 PM 57.2 °F 53.6 °F 88% 30.18 in - NW 3.5 mph - N/A   Clear
9:15 PM 55.4 °F 51.8 °F 88% 30.21 in - Calm Calm - N/A   Clear
9:45 PM 57.2 °F 53.6 °F 88% 30.21 in - NW 4.6 mph - N/A   Clear
10:45 PM 53.6 °F 51.8 °F 94% 30.21 in - ENE 2.3 mph - N/A   Clear
11:45 PM 55.4 °F 53.6 °F 94% 30.21 in - NNE 2.3 mph - N/A   Clear